Orange, TX

1:12 AM CST on November 18, 2017 (GMT -0600)
Orange County

Weather History for KORG - November, 2012

Change the Weather History Date:

Saturday, November 3, 2012

  Actual Average Record
Temperature  
Mean Temperature 71 °F -  
Max Temperature 82 °F 73 °F 86 °F (1978)
Min Temperature 60 °F 50 °F 27 °F (1966)
Cooling Degree Days 6    
Growing Degree Days 21 (Base 50)    
Moisture  
Dew Point 67 °F    
Average Humidity 87    
Maximum Humidity 100    
Minimum Humidity 54    
Precipitation  
Precipitation 0.00 in - - ()
Sea Level Pressure  
Sea Level Pressure 30.08 in    
Wind  
Wind Speed 3 mph (SSE)    
Max Wind Speed 13 mph    
Max Gust Speed 17 mph    
Visibility 7 miles    
Events Fog , Thunderstorm    
Averages and records for this station are not official NWS values.
T = Trace of Precipitation, MM = Missing Value Source: NWS Daily Summary

Daily Weather History Graph

Daily Weather History Graph

Search for Another Location

Airport or City:

Trip Planner

Search our weather history database for the weather conditions in past years. The results will help you decide how hot, cold, wet, or windy it might be!

Date:

Astronomy

Nov. 03, 2012 Rise Set
Actual Time 7:31 AM CDT 6:26 PM CDT
Civil Twilight 7:06 AM CDT 6:50 PM CDT
Nautical Twilight 6:37 AM CDT 7:19 PM CDT
Astronomical Twilight 6:09 AM CDT 7:47 PM CDT
Moon 10:14 PM CDT (11/3) 11:28 AM CDT (11/3)
Length of Visible Light 11h 44m
Length of Day
10h 54m
Waning Gibbous, 80% of the Moon is Illuminated
Nov 3
Waning Gibbous
Nov 6
Last Quarter
Nov 13
New
Nov 20
First Quarter
Nov 28
Full

Hourly Weather History & Observations

Time (CDT) Temp. Heat Index Dew Point Humidity Pressure Visibility Wind Dir Wind Speed Gust Speed Precip Events Conditions
12:15 AM 68.0 °F - 68.0 °F 100% 30.06 in 10.0 mi SSE 3.5 mph - N/A   Clear
12:35 AM 68.0 °F - 68.0 °F 100% 30.06 in 10.0 mi SSE 3.5 mph - N/A   Clear
12:55 AM 68.0 °F - 68.0 °F 100% 30.05 in 10.0 mi SSE 3.5 mph - N/A   Clear
1:15 AM 68.0 °F - 68.0 °F 100% 30.05 in 10.0 mi Calm Calm - N/A   Clear
1:35 AM 68.0 °F - 68.0 °F 100% 30.05 in 10.0 mi SSE 3.5 mph - N/A   Clear
1:55 AM 68.0 °F - 68.0 °F 100% 30.05 in 10.0 mi SSE 3.5 mph - N/A   Clear
2:15 AM 68.0 °F - 68.0 °F 100% 30.05 in 10.0 mi SSE 3.5 mph - N/A   Clear
2:35 AM 68.0 °F - 68.0 °F 100% 30.05 in 10.0 mi SSE 3.5 mph - N/A   Clear
2:55 AM 64.4 °F - 64.4 °F 100% 30.05 in 1.0 mi Calm Calm - N/A   Mist
3:15 AM 64.4 °F - 64.4 °F 100% 30.05 in 0.8 mi Calm Calm - N/A   Mist
3:35 AM 62.6 °F - 62.6 °F 100% 30.04 in 0.2 mi Calm Calm - N/A Fog Fog
3:55 AM 62.6 °F - 62.6 °F 100% 30.04 in 0.5 mi Calm Calm - N/A Fog Fog
4:15 AM 62.6 °F - 62.6 °F 100% 30.05 in 0.2 mi SSE 3.5 mph - N/A Fog Fog
4:55 AM 64.4 °F - 64.4 °F 100% 30.05 in 0.5 mi Calm Calm - N/A Fog Fog
5:15 AM 64.4 °F - 64.4 °F 100% 30.06 in 0.5 mi Calm Calm - N/A Fog Fog
5:35 AM 62.6 °F - 62.6 °F 100% 30.06 in 0.2 mi Calm Calm - N/A Fog Fog
5:55 AM 62.6 °F - 62.6 °F 100% 30.07 in 0.2 mi Calm Calm - N/A Fog Fog
6:15 AM 60.8 °F - 60.8 °F 100% 30.07 in 0.2 mi Calm Calm - N/A Fog Fog
6:35 AM 60.8 °F - 60.8 °F 100% 30.08 in 0.2 mi Calm Calm - N/A Fog Fog
6:55 AM 60.8 °F - 60.8 °F 100% 30.08 in 0.2 mi Calm Calm - N/A Fog Fog
7:15 AM - - - N/A% 30.09 in 0.2 mi Calm Calm - N/A Fog Fog
7:35 AM - - - N/A% 30.10 in 0.2 mi Calm Calm - N/A Fog Fog
7:55 AM - - - N/A% 30.10 in 0.2 mi Calm Calm - N/A Fog Fog
8:15 AM - - - N/A% 30.11 in 0.2 mi Calm Calm - N/A Fog Fog
8:35 AM - - - N/A% 30.12 in 0.2 mi Calm Calm - N/A Fog Fog
8:55 AM - - - N/A% 30.12 in 0.2 mi Calm Calm - N/A Fog Fog
9:15 AM 71.6 °F - 71.6 °F 100% 30.13 in 4.0 mi Calm Calm - N/A   Scattered Clouds
9:35 AM 73.4 °F - 73.4 °F 100% 30.13 in 10.0 mi Calm Calm - N/A   Clear
9:55 AM 73.4 °F - 73.4 °F 100% 30.13 in 10.0 mi South 3.5 mph - N/A   Clear
10:15 AM 73.4 °F - 73.4 °F 100% 30.13 in 10.0 mi Calm Calm - N/A   Clear
10:35 AM 73.4 °F - 73.4 °F 100% 30.14 in 10.0 mi South 5.8 mph - N/A   Clear
10:55 AM 73.4 °F - 73.4 °F 100% 30.13 in 10.0 mi South 6.9 mph - N/A   Clear
11:15 AM 73.4 °F - 73.4 °F 100% 30.14 in 10.0 mi South 10.4 mph - N/A   Clear
11:35 AM 77.0 °F - 71.6 °F 83% 30.14 in 10.0 mi South 9.2 mph - N/A   Clear
11:55 AM 80.6 °F 83.9 °F 69.8 °F 70% 30.13 in 10.0 mi SSE 10.4 mph 17.3 mph N/A   Clear
12:15 PM 80.6 °F 83.9 °F 69.8 °F 70% 30.12 in 10.0 mi SSE 12.7 mph - N/A   Clear
12:35 PM 80.6 °F 82.7 °F 66.2 °F 61% 30.11 in 10.0 mi South 11.5 mph 16.1 mph N/A   Clear
12:55 PM 82.4 °F 85.4 °F 68.0 °F 62% 30.10 in 10.0 mi South 10.4 mph 16.1 mph N/A   Clear
1:15 PM 82.4 °F 83.9 °F 64.4 °F 54% 30.09 in 10.0 mi SSE 10.4 mph 16.1 mph N/A   Clear
1:35 PM 82.4 °F 84.6 °F 66.2 °F 58% 30.08 in 10.0 mi South 10.4 mph - N/A   Clear
1:55 PM 82.4 °F 85.4 °F 68.0 °F 62% 30.07 in 10.0 mi SSE 11.5 mph - N/A   Clear
2:15 PM 82.4 °F 83.9 °F 64.4 °F 54% 30.06 in 10.0 mi South 11.5 mph - N/A   Clear
2:35 PM 82.4 °F 85.4 °F 68.0 °F 62% 30.06 in 10.0 mi South 10.4 mph - N/A   Clear
2:55 PM 82.4 °F 84.6 °F 66.2 °F 58% 30.05 in 10.0 mi SSE 11.5 mph 16.1 mph N/A   Clear
3:15 PM 80.6 °F 82.7 °F 66.2 °F 61% 30.04 in 10.0 mi South 12.7 mph - N/A   Clear
3:35 PM 80.6 °F 82.7 °F 66.2 °F 61% 30.04 in 10.0 mi South 11.5 mph - N/A   Clear
3:55 PM 80.6 °F 82.7 °F 66.2 °F 61% 30.04 in 10.0 mi South 11.5 mph - N/A   Clear
4:15 PM 78.8 °F - 68.0 °F 69% 30.05 in 10.0 mi South 8.1 mph - N/A Thunderstorm Clear
4:35 PM 78.8 °F - 68.0 °F 69% 30.05 in 10.0 mi South 6.9 mph - N/A   Clear
4:55 PM 77.0 °F - 68.0 °F 74% 30.04 in 10.0 mi South 8.1 mph - N/A   Clear
5:15 PM 77.0 °F - 66.2 °F 69% 30.05 in 10.0 mi South 8.1 mph - N/A   Clear
5:35 PM 77.0 °F - 68.0 °F 74% 30.06 in 10.0 mi South 8.1 mph - N/A   Clear
5:55 PM 77.0 °F - 68.0 °F 74% 30.06 in 10.0 mi South 6.9 mph - N/A   Clear
6:15 PM 75.2 °F - 68.0 °F 78% 30.06 in 10.0 mi South 9.2 mph - N/A   Clear
6:35 PM 73.4 °F - 68.0 °F 83% 30.07 in 10.0 mi South 6.9 mph - N/A   Clear
6:55 PM 73.4 °F - 68.0 °F 83% 30.07 in 10.0 mi Calm Calm - N/A   Clear
7:15 PM 71.6 °F - 66.2 °F 83% 30.07 in 10.0 mi Calm Calm - N/A   Clear
7:35 PM 69.8 °F - 64.4 °F 83% 30.08 in 10.0 mi Calm Calm - N/A   Clear
7:55 PM 69.8 °F - 64.4 °F 83% 30.08 in 10.0 mi Calm Calm - N/A   Clear
8:15 PM 68.0 °F - 64.4 °F 88% 30.08 in 10.0 mi Calm Calm - N/A   Clear
8:35 PM 68.0 °F - 68.0 °F 100% 30.09 in 10.0 mi SE 3.5 mph - N/A   Clear
8:55 PM 68.0 °F - 68.0 °F 100% 30.09 in 10.0 mi Calm Calm - N/A   Clear
9:15 PM 68.0 °F - 68.0 °F 100% 30.09 in 10.0 mi Calm Calm - N/A   Clear
9:35 PM 68.0 °F - 68.0 °F 100% 30.10 in 10.0 mi Calm Calm - N/A   Clear
9:55 PM 68.0 °F - 68.0 °F 100% 30.10 in 10.0 mi Calm Calm - N/A   Clear
10:15 PM 68.0 °F - 68.0 °F 100% 30.09 in 10.0 mi SSE 3.5 mph - N/A   Clear
10:35 PM 68.0 °F - 68.0 °F 100% 30.09 in 10.0 mi Calm Calm - N/A   Clear
11:15 PM 68.0 °F - 68.0 °F 100% 30.09 in 10.0 mi Calm Calm - N/A   Clear
11:35 PM 66.2 °F - 66.2 °F 100% 30.09 in 10.0 mi Calm Calm - N/A   Clear
11:55 PM 66.2 °F - 66.2 °F 100% 30.08 in 10.0 mi Calm Calm - N/A   Clear